Andravida, Greece

11:33 AM EET on December 11, 2016 (GMT +0200)
Andravida Air Base

Weather History for LGAD - January, 2013

Change the Weather History Date:

Friday, January 25, 2013

  Actual Average Record
Temperature  
Mean Temperature 50 °F -  
Max Temperature 54 °F 55 °F 62 °F (2007)
Min Temperature 46 °F 40 °F 28 °F (2006)
Degree Days  
Heating Degree Days 15    
Moisture  
Dew Point 44 °F    
Average Humidity 81    
Maximum Humidity 88    
Minimum Humidity 63    
Precipitation  
Precipitation 0.47 in - - ()
Sea Level Pressure  
Sea Level Pressure 29.52 in    
Wind  
Wind Speed 7 mph ()    
Max Wind Speed 17 mph    
Max Gust Speed -    
Visibility 5.8 miles    
Events Rain , Thunderstorm    
Averages and records for this station are not official NWS values.
T = Trace of Precipitation, MM = Missing Value Source: Averaged Metar Reports

Daily Weather History Graph

Daily Weather History Graph

Search for Another Location

Airport or City:

Trip Planner

Search our weather history database for the weather conditions in past years. The results will help you decide how hot, cold, wet, or windy it might be!

Date:

Astronomy

Jan. 25, 2013 Rise Set
Actual Time 7:44 AM EET 5:50 PM EET
Civil Twilight 7:16 AM EET 6:18 PM EET
Nautical Twilight 6:44 AM EET 6:50 PM EET
Astronomical Twilight 6:13 AM EET 7:21 PM EET
Moon 4:30 PM EET (1/25) 6:11 AM EET (1/25)
Length of Visible Light 11h 02m
Length of Day
10h 05m
Waxing Gibbous, 97% of the Moon is Illuminated
Jan 25
Waxing Gibbous
Jan 27
Full
Feb 3
Last Quarter
Feb 10
New
Feb 17
First Quarter

Hourly Weather History & Observations

Time (EET) Temp. Windchill Dew Point Humidity Pressure Visibility Wind Dir Wind Speed Gust Speed Precip Events Conditions
1:50 AM 51.8 °F - 42.8 °F 71% 29.65 in 6.2 mi SSW 4.6 mph - N/A   Mostly Cloudy
2:00 AM 51 °F - 42 °F 63% 29.66 in 6 mi SSW 4.6 mph - -   Partly Cloudy
4:50 AM 51.8 °F - 42.8 °F 71% 29.62 in 6.2 mi SSW 4.6 mph - N/A   Mostly Cloudy
5:50 AM 50.0 °F - 42.8 °F 76% 29.62 in 6.2 mi ESE 8.1 mph - N/A   Mostly Cloudy
6:20 AM 50.0 °F - 42.8 °F 76% 29.62 in 6.2 mi SE 5.8 mph - N/A   Mostly Cloudy
6:50 AM 51.8 °F - 42.8 °F 71% 29.59 in 6.2 mi SW 12.7 mph - N/A Rain Light Rain
7:20 AM 51.8 °F - 44.6 °F 76% 29.59 in 6.2 mi South 13.8 mph - N/A Rain Light Rain
7:50 AM 50.0 °F - 44.6 °F 82% 29.59 in 6.2 mi SSE 4.6 mph - N/A   Overcast
8:00 AM 50 °F - 44 °F 74% 29.62 in 6 mi SSE 4.6 mph - - Rain Light Rain
8:20 AM 50.0 °F - 44.6 °F 82% 29.59 in 6.2 mi SE 8.1 mph - N/A   Overcast
8:50 AM 50.0 °F - 44.6 °F 82% 29.56 in 6.2 mi SE 9.2 mph - N/A Rain Light Rain
9:20 AM 50.0 °F - 44.6 °F 82% 29.56 in 6.2 mi ESE 12.7 mph - N/A Rain Light Rain
9:50 AM 50.0 °F - 44.6 °F 82% 29.53 in 6.2 mi SE 11.5 mph - N/A   Overcast
10:20 AM 53.6 °F - 44.6 °F 72% 29.53 in 6.2 mi South 11.5 mph - N/A   Overcast
10:50 AM 48.2 °F - 42.8 °F 82% 29.56 in 6.2 mi NNW 8.1 mph - N/A Rain Light Rain
11:20 AM 53.6 °F - 46.4 °F 77% 29.53 in 6.2 mi SE 12.7 mph - N/A   Overcast
12:20 PM 51.8 °F - 46.4 °F 82% 29.53 in 6.2 mi South 10.4 mph - N/A   Overcast
12:50 PM 53.6 °F - 46.4 °F 77% 29.50 in 3.7 mi WSW 17.3 mph - N/A Rain Light Rain
1:20 PM 53.6 °F - 46.4 °F 77% 29.47 in 6.2 mi WSW 5.8 mph - N/A   Overcast
1:50 PM 50.0 °F - 46.4 °F 87% 29.47 in 3.7 mi SW 10.4 mph - N/A Rain Light Rain
2:00 PM 50 °F - 46 °F 80% 29.49 in 4 mi SW 10.4 mph - - Rain Light Rain
2:20 PM 50.0 °F - 44.6 °F 82% 29.47 in 3.7 mi South 5.8 mph - N/A Rain Light Rain
2:50 PM 51.8 °F - 48.2 °F 88% 29.44 in 6.2 mi Calm Calm - N/A Rain Light Rain
3:20 PM 50.0 °F - 46.4 °F 87% 29.44 in 6.2 mi South 5.8 mph - N/A Rain Light Rain
3:50 PM 51.8 °F - 46.4 °F 82% 29.47 in 6.2 mi South 5.8 mph - N/A   Overcast
4:20 PM 50.0 °F - 44.6 °F 82% 29.47 in 6.2 mi West 5.8 mph - N/A   Overcast
4:50 PM 48.2 °F - 44.6 °F 87% 29.47 in 5.0 mi Calm Calm - N/A Rain Light Rain
5:20 PM 48.2 °F - 44.6 °F 87% 29.47 in 6.2 mi Calm Calm - N/A   Overcast
5:50 PM 48.2 °F - 44.6 °F 87% 29.47 in 6.2 mi East 8.1 mph - N/A   Overcast
6:20 PM 48.2 °F - 44.6 °F 87% 29.47 in 4.3 mi East 6.9 mph - N/A Rain , Thunderstorm Light Thunderstorms and Rain
6:50 PM 48.2 °F - 44.6 °F 87% 29.47 in 6.2 mi ESE 8.1 mph - N/A   Overcast
7:50 PM 48.2 °F - 44.6 °F 87% 29.47 in 6.2 mi East 10.4 mph - N/A   Overcast
8:00 PM 47 °F - 44 °F 86% 29.49 in 6 mi ESE 11.5 mph - - Rain Light Rain
8:20 PM 46.4 °F 40.4 °F 42.8 °F 87% 29.47 in 6.2 mi East 13.8 mph - N/A   Overcast
8:50 PM 46.4 °F 41.1 °F 42.8 °F 87% 29.47 in 6.2 mi East 11.5 mph - N/A   Mostly Cloudy
9:20 PM 46.4 °F 42.4 °F 42.8 °F 87% 29.47 in 6.2 mi East 8.1 mph - N/A   Mostly Cloudy
9:50 PM 48.2 °F - 44.6 °F 87% 29.47 in 6.2 mi East 11.5 mph - N/A   Mostly Cloudy
10:20 PM 48.2 °F - 42.8 °F 82% 29.47 in 5.0 mi ESE 11.5 mph - N/A Rain , Thunderstorm Light Thunderstorms and Rain
10:50 PM 48.2 °F - 42.8 °F 82% 29.44 in 5.0 mi ESE 12.7 mph - N/A Rain , Thunderstorm Light Thunderstorms and Rain
11:20 PM 48.2 °F - 42.8 °F 82% 29.44 in 6.2 mi ESE 10.4 mph - N/A Thunderstorm Thunderstorm
11:50 PM 48.2 °F - 42.8 °F 82% 29.44 in 6.2 mi SE 8.1 mph - N/A   Overcast